Time,TemperatureF,DewpointF,PressureIn,WindDirection,WindDirectionDegrees,WindSpeedMPH,WindSpeedGustMPH,Humidity,HourlyPrecipIn,Conditions,Clouds,dailyrainin,SoftwareType,DateUTC
2013-12-23 00:01:00,66.3,65.1,30.02,South,173,1.0,4.0,96,0.00,,---,0.00,VWS V14.00,2013-12-23 05:01:00,
2013-12-23 00:06:00,66.4,65.2,30.02,South,175,0.0,5.0,96,0.00,,---,0.00,VWS V14.00,2013-12-23 05:06:00,
2013-12-23 00:11:00,66.5,65.3,30.02,South,176,0.0,5.0,96,0.00,,---,0.00,VWS V14.00,2013-12-23 05:11:00,
2013-12-23 00:16:00,66.5,65.3,30.02,South,182,4.0,5.0,96,0.00,,---,0.00,VWS V14.00,2013-12-23 05:16:00,
2013-12-23 00:21:00,66.6,65.4,30.02,South,183,0.0,5.0,96,0.00,,---,0.00,VWS V14.00,2013-12-23 05:21:00,
2013-12-23 00:26:00,66.7,65.5,30.01,South,182,4.0,4.0,96,0.00,,---,0.00,VWS V14.00,2013-12-23 05:26:00,
2013-12-23 00:31:00,66.8,65.6,30.01,South,188,1.0,4.0,96,0.00,,---,0.00,VWS V14.00,2013-12-23 05:31:00,
2013-12-23 00:36:00,66.9,65.7,30.01,SSW,193,4.0,4.0,96,0.00,,---,0.00,VWS V14.00,2013-12-23 05:36:00,
2013-12-23 00:41:00,67.0,65.8,30.01,SSW,211,0.0,4.0,96,0.00,,---,0.00,VWS V14.00,2013-12-23 05:41:00,
2013-12-23 00:46:00,67.1,65.9,30.01,SSW,207,4.0,8.0,96,0.00,,---,0.00,VWS V14.00,2013-12-23 05:46:00,
2013-12-23 00:51:00,67.2,66.0,30.01,SW,233,1.0,8.0,96,0.00,,---,0.00,VWS V14.00,2013-12-23 05:51:00,
2013-12-23 00:56:00,67.3,66.1,30.00,SSW,206,2.0,4.0,96,0.00,,---,0.00,VWS V14.00,2013-12-23 05:56:00,
2013-12-23 01:01:00,67.4,65.9,30.00,SSW,202,0.0,6.0,95,0.00,,---,0.00,VWS V14.00,2013-12-23 06:01:00,
2013-12-23 01:06:00,67.4,65.9,30.00,South,183,2.0,8.0,95,0.00,,---,0.00,VWS V14.00,2013-12-23 06:06:00,
2013-12-23 01:11:00,67.6,66.4,30.00,South,191,4.0,9.0,96,0.00,,---,0.00,VWS V14.00,2013-12-23 06:11:00,
2013-12-23 01:16:00,67.7,66.2,30.00,SSW,207,5.0,9.0,95,0.00,,---,0.00,VWS V14.00,2013-12-23 06:16:00,
2013-12-23 01:21:00,67.8,66.3,30.00,SSW,194,5.0,9.0,95,0.00,,---,0.00,VWS V14.00,2013-12-23 06:21:00,
2013-12-23 01:26:00,67.9,66.4,29.99,SSW,197,3.0,7.0,95,0.00,,---,0.00,VWS V14.00,2013-12-23 06:26:00,
2013-12-23 01:31:00,68.0,66.5,29.99,SSW,211,4.0,8.0,95,0.00,,---,0.00,VWS V14.00,2013-12-23 06:31:00,
2013-12-23 01:36:00,68.1,66.6,29.99,SSW,209,4.0,8.0,95,0.00,,---,0.00,VWS V14.00,2013-12-23 06:36:00,
2013-12-23 01:41:00,68.2,66.7,29.99,SW,221,4.0,8.0,95,0.00,,---,0.00,VWS V14.00,2013-12-23 06:41:00,
2013-12-23 01:46:00,68.2,66.7,29.99,South,188,1.0,8.0,95,0.00,,---,0.00,VWS V14.00,2013-12-23 06:46:00,
2013-12-23 01:51:00,68.3,66.8,29.99,SSW,202,6.0,8.0,95,0.00,,---,0.00,VWS V14.00,2013-12-23 06:51:00,
2013-12-23 01:56:00,68.4,66.6,29.99,WSW,245,2.0,7.0,94,0.00,,---,0.00,VWS V14.00,2013-12-23 06:56:00,
2013-12-23 02:01:00,68.5,66.7,29.99,SSW,207,0.0,7.0,94,0.00,,---,0.00,VWS V14.00,2013-12-23 07:01:00,
2013-12-23 02:06:00,68.5,66.7,29.99,SW,218,1.0,7.0,94,0.00,,---,0.00,VWS V14.00,2013-12-23 07:06:00,
2013-12-23 02:11:00,68.5,66.7,29.99,SW,222,2.0,7.0,94,0.00,,---,0.00,VWS V14.00,2013-12-23 07:11:00,
2013-12-23 02:16:00,68.5,66.7,29.99,SSW,213,2.0,7.0,94,0.00,,---,0.00,VWS V14.00,2013-12-23 07:16:00,
2013-12-23 02:21:00,68.6,66.8,30.00,SW,219,2.0,7.0,94,0.00,,---,0.00,VWS V14.00,2013-12-23 07:21:00,
2013-12-23 02:26:00,68.6,66.8,30.00,SW,227,1.0,5.0,94,0.00,,---,0.00,VWS V14.00,2013-12-23 07:26:00,
2013-12-23 02:31:00,68.6,66.8,30.00,SW,228,1.0,5.0,94,0.00,,---,0.00,VWS V14.00,2013-12-23 07:31:00,
2013-12-23 02:36:00,68.6,66.8,30.00,SW,235,3.0,5.0,94,0.00,,---,0.00,VWS V14.00,2013-12-23 07:36:00,
2013-12-23 02:41:00,68.6,66.5,30.00,SW,236,0.0,5.0,93,0.00,,---,0.00,VWS V14.00,2013-12-23 07:41:00,
2013-12-23 02:46:00,68.6,66.5,30.00,WSW,245,0.0,5.0,93,0.00,,---,0.00,VWS V14.00,2013-12-23 07:46:00,
2013-12-23 02:51:00,68.6,66.5,30.00,WSW,246,1.0,5.0,93,0.00,,---,0.00,VWS V14.00,2013-12-23 07:51:00,
2013-12-23 02:56:00,68.5,66.4,30.00,NW,312,4.0,8.0,93,0.01,,---,0.01,VWS V14.00,2013-12-23 07:56:00,
2013-12-23 03:01:00,67.9,64.9,30.00,WNW,296,0.0,8.0,90,0.01,,---,0.01,VWS V14.00,2013-12-23 08:01:00,
2013-12-23 03:06:00,67.4,64.4,30.00,West,279,0.0,8.0,90,0.01,,---,0.01,VWS V14.00,2013-12-23 08:06:00,
2013-12-23 03:11:00,67.0,64.0,30.00,West,264,0.0,8.0,90,0.02,,---,0.02,VWS V14.00,2013-12-23 08:11:00,
2013-12-23 03:16:00,66.7,64.0,30.00,West,264,0.0,8.0,91,0.03,,---,0.03,VWS V14.00,2013-12-23 08:16:00,
2013-12-23 03:21:00,66.5,64.1,30.00,West,264,0.0,8.0,92,0.03,,---,0.03,VWS V14.00,2013-12-23 08:21:00,
2013-12-23 03:26:00,66.3,63.9,30.00,West,264,0.0,0.0,92,0.03,,---,0.03,VWS V14.00,2013-12-23 08:26:00,
2013-12-23 03:31:00,66.1,64.0,30.00,West,264,0.0,1.0,93,0.04,,---,0.04,VWS V14.00,2013-12-23 08:31:00,
2013-12-23 03:36:00,66.0,63.9,30.00,West,264,0.0,1.0,93,0.06,,---,0.06,VWS V14.00,2013-12-23 08:36:00,
2013-12-23 03:41:00,65.9,63.8,30.00,West,264,0.0,3.0,93,0.07,,---,0.07,VWS V14.00,2013-12-23 08:41:00,
2013-12-23 03:46:00,65.8,63.7,30.01,West,264,0.0,3.0,93,0.07,,---,0.07,VWS V14.00,2013-12-23 08:46:00,
2013-12-23 03:51:00,65.7,63.9,30.00,West,264,0.0,3.0,94,0.07,,---,0.07,VWS V14.00,2013-12-23 08:51:00,
2013-12-23 03:56:00,65.6,63.8,30.01,West,264,0.0,1.0,94,0.07,,---,0.07,VWS V14.00,2013-12-23 08:56:00,
2013-12-23 04:01:00,65.6,63.8,30.01,West,264,0.0,1.0,94,0.09,,---,0.09,VWS V14.00,2013-12-23 09:01:00,
2013-12-23 04:06:00,65.5,64.0,30.01,West,269,2.0,3.0,95,0.13,,---,0.13,VWS V14.00,2013-12-23 09:06:00,
2013-12-23 04:11:00,65.5,64.0,30.01,West,271,2.0,4.0,95,0.14,,---,0.14,VWS V14.00,2013-12-23 09:11:00,
2013-12-23 04:16:00,65.6,64.1,30.01,West,271,0.0,4.0,95,0.18,,---,0.18,VWS V14.00,2013-12-23 09:16:00,
2013-12-23 04:21:00,65.6,64.1,30.01,West,271,0.0,4.0,95,0.19,,---,0.19,VWS V14.00,2013-12-23 09:21:00,
2013-12-23 04:26:00,65.6,64.1,30.01,West,271,1.0,4.0,95,0.20,,---,0.23,VWS V14.00,2013-12-23 09:26:00,
2013-12-23 04:31:00,65.7,64.2,30.01,WNW,283,0.0,5.0,95,0.20,,---,0.23,VWS V14.00,2013-12-23 09:31:00,
2013-12-23 04:36:00,65.6,64.1,30.01,WNW,283,0.0,5.0,95,0.21,,---,0.24,VWS V14.00,2013-12-23 09:36:00,
2013-12-23 04:41:00,65.7,64.2,30.01,WNW,282,0.0,5.0,95,0.22,,---,0.25,VWS V14.00,2013-12-23 09:41:00,
2013-12-23 04:46:00,65.7,64.2,30.01,WNW,282,0.0,5.0,95,0.23,,---,0.26,VWS V14.00,2013-12-23 09:46:00,
2013-12-23 04:51:00,65.6,64.1,30.01,West,277,1.0,5.0,95,0.24,,---,0.27,VWS V14.00,2013-12-23 09:51:00,
2013-12-23 04:56:00,65.4,63.9,30.01,West,271,2.0,4.0,95,0.21,,---,0.28,VWS V14.00,2013-12-23 09:56:00,
2013-12-23 05:01:00,65.3,63.8,30.01,West,271,0.0,4.0,95,0.24,,---,0.31,VWS V14.00,2013-12-23 10:01:00,
2013-12-23 05:06:00,65.3,63.8,30.01,West,271,1.0,4.0,95,0.26,,---,0.33,VWS V14.00,2013-12-23 10:06:00,
2013-12-23 05:11:00,65.2,63.7,30.00,West,271,2.0,4.0,95,0.27,,---,0.34,VWS V14.00,2013-12-23 10:11:00,
2013-12-23 05:16:00,65.2,63.7,30.00,West,271,0.0,4.0,95,0.28,,---,0.35,VWS V14.00,2013-12-23 10:16:00,
2013-12-23 05:21:00,65.1,63.6,30.01,West,271,1.0,4.0,95,0.28,,---,0.35,VWS V14.00,2013-12-23 10:21:00,
2013-12-23 05:26:00,65.1,63.6,30.01,West,271,0.0,0.0,95,0.14,,---,0.35,VWS V14.00,2013-12-23 10:26:00,
2013-12-23 05:31:00,65.1,63.6,30.01,West,271,0.0,2.0,95,0.14,,---,0.35,VWS V14.00,2013-12-23 10:31:00,
2013-12-23 05:36:00,65.0,63.5,30.01,West,271,0.0,2.0,95,0.14,,---,0.35,VWS V14.00,2013-12-23 10:36:00,
2013-12-23 05:41:00,65.0,63.5,30.01,West,271,0.0,2.0,95,0.14,,---,0.35,VWS V14.00,2013-12-23 10:41:00,
2013-12-23 05:46:00,65.0,63.5,30.02,West,270,0.0,2.0,95,0.14,,---,0.35,VWS V14.00,2013-12-23 10:46:00,
2013-12-23 05:51:00,64.9,63.4,30.02,West,269,1.0,3.0,95,0.15,,---,0.36,VWS V14.00,2013-12-23 10:51:00,
2013-12-23 05:56:00,64.9,63.4,30.02,West,269,0.0,2.0,95,0.11,,---,0.38,VWS V14.00,2013-12-23 10:56:00,
2013-12-23 06:01:00,64.9,63.4,30.02,West,269,0.0,2.0,95,0.11,,---,0.38,VWS V14.00,2013-12-23 11:01:00,
2013-12-23 06:06:00,64.8,63.3,30.02,West,269,0.0,2.0,95,0.12,,---,0.39,VWS V14.00,2013-12-23 11:06:00,
2013-12-23 06:11:00,64.8,63.3,30.02,West,269,0.0,3.0,95,0.13,,---,0.40,VWS V14.00,2013-12-23 11:11:00,
2013-12-23 06:16:00,64.8,63.3,30.03,West,269,0.0,3.0,95,0.13,,---,0.40,VWS V14.00,2013-12-23 11:16:00,
2013-12-23 06:21:00,64.8,63.3,30.03,West,275,0.0,5.0,95,0.14,,---,0.41,VWS V14.00,2013-12-23 11:21:00,
2013-12-23 06:26:00,64.8,63.3,30.03,West,275,0.0,1.0,95,0.07,,---,0.42,VWS V14.00,2013-12-23 11:26:00,
2013-12-23 06:31:00,64.8,63.3,30.03,West,273,0.0,5.0,95,0.08,,---,0.43,VWS V14.00,2013-12-23 11:31:00,
2013-12-23 06:36:00,64.7,63.2,30.03,West,273,0.0,5.0,95,0.09,,---,0.44,VWS V14.00,2013-12-23 11:36:00,
2013-12-23 06:41:00,64.7,63.2,30.03,West,273,0.0,5.0,95,0.10,,---,0.45,VWS V14.00,2013-12-23 11:41:00,
2013-12-23 06:46:00,64.7,63.2,30.03,West,273,0.0,5.0,95,0.10,,---,0.45,VWS V14.00,2013-12-23 11:46:00,
2013-12-23 06:51:00,64.7,63.5,30.03,West,273,0.0,5.0,96,0.11,,---,0.46,VWS V14.00,2013-12-23 11:51:00,
2013-12-23 06:56:00,64.6,63.4,30.03,West,273,0.0,1.0,96,0.09,,---,0.46,VWS V14.00,2013-12-23 11:56:00,
2013-12-23 07:01:00,64.6,63.4,30.03,West,273,0.0,2.0,96,0.09,,---,0.46,VWS V14.00,2013-12-23 12:01:00,
2013-12-23 07:06:00,64.6,63.4,30.04,West,273,0.0,2.0,96,0.09,,---,0.46,VWS V14.00,2013-12-23 12:06:00,
2013-12-23 07:11:00,64.6,63.4,30.04,West,273,0.0,2.0,96,0.10,,---,0.47,VWS V14.00,2013-12-23 12:11:00,
2013-12-23 07:16:00,64.6,63.4,30.04,West,273,0.0,2.0,96,0.11,,---,0.48,VWS V14.00,2013-12-23 12:16:00,
2013-12-23 07:21:00,64.5,63.3,30.06,WNW,290,0.0,4.0,96,0.13,,---,0.50,VWS V14.00,2013-12-23 12:21:00,
2013-12-23 07:26:00,64.0,62.2,30.06,NW,325,0.0,8.0,94,0.15,,---,0.56,VWS V14.00,2013-12-23 12:26:00,
2013-12-23 07:31:00,63.4,61.7,30.06,NW,308,0.0,8.0,94,0.18,,---,0.59,VWS V14.00,2013-12-23 12:31:00,
2013-12-23 07:36:00,63.1,61.3,30.05,NW,309,0.0,8.0,94,0.18,,---,0.59,VWS V14.00,2013-12-23 12:36:00,
2013-12-23 07:41:00,62.9,61.5,30.06,NW,309,0.0,8.0,95,0.19,,---,0.60,VWS V14.00,2013-12-23 12:41:00,
2013-12-23 07:46:00,62.7,61.2,30.05,NW,309,1.0,8.0,95,0.20,,---,0.61,VWS V14.00,2013-12-23 12:46:00,
2013-12-23 07:51:00,62.5,61.0,30.06,NW,312,0.0,8.0,95,0.22,,---,0.63,VWS V14.00,2013-12-23 12:51:00,
2013-12-23 07:58:00,62.4,61.0,30.06,NW,312,0.0,0.0,95,0.00,,---,0.65,VWS V14.00,2013-12-23 12:58:00,
2013-12-23 08:03:00,62.3,60.8,30.06,NW,312,0.0,1.0,95,0.21,,---,0.67,VWS V14.00,2013-12-23 13:03:00,
2013-12-23 08:08:00,62.1,60.7,30.05,NW,314,0.0,4.0,95,0.23,,---,0.69,VWS V14.00,2013-12-23 13:08:00,
2013-12-23 08:13:00,61.9,60.5,30.05,NW,315,2.0,4.0,95,0.25,,---,0.71,VWS V14.00,2013-12-23 13:13:00,
2013-12-23 08:18:00,61.8,60.4,30.05,NW,315,0.0,4.0,95,0.27,,---,0.73,VWS V14.00,2013-12-23 13:18:00,
2013-12-23 08:23:00,61.6,60.2,30.06,NW,315,0.0,4.0,95,0.28,,---,0.74,VWS V14.00,2013-12-23 13:23:00,
2013-12-23 08:28:00,61.4,60.0,30.06,NW,315,1.0,1.0,95,0.22,,---,0.75,VWS V14.00,2013-12-23 13:28:00,
2013-12-23 08:33:00,61.4,60.0,30.06,NW,315,0.0,1.0,95,0.23,,---,0.76,VWS V14.00,2013-12-23 13:33:00,
2013-12-23 08:38:00,61.3,59.9,30.06,NW,315,0.0,1.0,95,0.23,,---,0.76,VWS V14.00,2013-12-23 13:38:00,
2013-12-23 08:43:00,61.2,59.8,30.06,NW,315,0.0,1.0,95,0.24,,---,0.77,VWS V14.00,2013-12-23 13:43:00,
2013-12-23 08:48:00,61.2,60.0,30.06,NW,315,0.0,1.0,96,0.25,,---,0.78,VWS V14.00,2013-12-23 13:48:00,
2013-12-23 08:53:00,61.2,60.0,30.05,NW,315,0.0,1.0,96,0.28,,---,0.81,VWS V14.00,2013-12-23 13:53:00,
2013-12-23 08:58:00,61.2,60.0,30.06,NW,315,0.0,2.0,96,0.19,,---,0.82,VWS V14.00,2013-12-23 13:58:00,
2013-12-23 09:03:00,61.1,60.0,30.06,NW,315,1.0,4.0,96,0.22,,---,0.85,VWS V14.00,2013-12-23 14:03:00,
2013-12-23 09:08:00,61.0,59.9,30.07,NW,315,0.0,4.0,96,0.26,,---,0.89,VWS V14.00,2013-12-23 14:08:00,
2013-12-23 09:13:00,60.9,59.5,30.08,NW,315,0.0,4.0,95,0.29,,---,0.92,VWS V14.00,2013-12-23 14:13:00,
2013-12-23 09:18:00,60.8,59.4,30.06,NW,315,0.0,4.0,95,0.36,,---,0.99,VWS V14.00,2013-12-23 14:18:00,
2013-12-23 09:23:00,60.7,59.3,30.05,NW,315,1.0,4.0,95,0.40,,---,1.03,VWS V14.00,2013-12-23 14:23:00,
2013-12-23 09:28:00,60.6,59.5,30.05,NW,315,0.0,2.0,96,0.33,,---,1.07,VWS V14.00,2013-12-23 14:28:00,
2013-12-23 09:33:00,60.5,59.4,30.06,NW,315,0.0,2.0,96,0.33,,---,1.07,VWS V14.00,2013-12-23 14:33:00,
2013-12-23 09:38:00,60.5,59.4,30.07,NW,315,0.0,2.0,96,0.33,,---,1.07,VWS V14.00,2013-12-23 14:38:00,
2013-12-23 09:43:00,60.5,59.4,30.07,NW,315,0.0,2.0,96,0.34,,---,1.08,VWS V14.00,2013-12-23 14:43:00,
2013-12-23 09:48:00,60.5,59.4,30.07,NW,315,0.0,4.0,96,0.35,,---,1.09,VWS V14.00,2013-12-23 14:48:00,
2013-12-23 09:53:00,60.4,59.3,30.07,NW,315,0.0,4.0,96,0.36,,---,1.10,VWS V14.00,2013-12-23 14:53:00,
2013-12-23 09:58:00,60.2,59.1,30.07,NW,315,0.0,2.0,96,0.31,,---,1.12,VWS V14.00,2013-12-23 14:58:00,
2013-12-23 10:02:00,60.1,59.0,30.07,NW,317,2.0,4.0,96,0.32,,---,1.13,VWS V14.00,2013-12-23 15:02:00,
2013-12-23 10:07:00,59.9,58.5,30.07,NW,313,0.0,7.0,95,0.32,,---,1.13,VWS V14.00,2013-12-23 15:07:00,
2013-12-23 10:12:00,59.7,58.3,30.07,NW,313,0.0,7.0,95,0.33,,---,1.14,VWS V14.00,2013-12-23 15:12:00,
2013-12-23 10:17:00,59.5,58.1,30.08,WNW,301,1.0,7.0,95,0.34,,---,1.15,VWS V14.00,2013-12-23 15:17:00,
2013-12-23 10:22:00,59.3,57.9,30.08,NW,308,4.0,7.0,95,0.34,,---,1.15,VWS V14.00,2013-12-23 15:22:00,
2013-12-23 10:27:00,59.1,57.7,30.09,NW,318,1.0,6.0,95,0.11,,---,1.15,VWS V14.00,2013-12-23 15:27:00,
2013-12-23 10:32:00,58.9,57.5,30.09,West,275,5.0,8.0,95,0.11,,---,1.15,VWS V14.00,2013-12-23 15:32:00,
2013-12-23 10:37:00,58.8,57.4,30.09,NW,314,2.0,8.0,95,0.11,,---,1.15,VWS V14.00,2013-12-23 15:37:00,
2013-12-23 10:42:00,58.7,57.3,30.09,West,280,6.0,8.0,95,0.12,,---,1.16,VWS V14.00,2013-12-23 15:42:00,
2013-12-23 10:47:00,58.7,57.3,30.09,West,278,0.0,8.0,95,0.13,,---,1.17,VWS V14.00,2013-12-23 15:47:00,
2013-12-23 10:52:00,58.6,57.2,30.09,West,276,0.0,8.0,95,0.14,,---,1.18,VWS V14.00,2013-12-23 15:52:00,
2013-12-23 10:57:00,58.6,57.5,30.07,West,276,0.0,1.0,96,0.09,,---,1.19,VWS V14.00,2013-12-23 15:57:00,
2013-12-23 11:02:00,58.6,57.5,30.07,West,276,0.0,4.0,96,0.10,,---,1.20,VWS V14.00,2013-12-23 16:02:00,
2013-12-23 11:07:00,58.5,57.4,30.07,West,280,1.0,5.0,96,0.11,,---,1.21,VWS V14.00,2013-12-23 16:07:00,
2013-12-23 11:12:00,58.5,57.4,30.08,WNW,283,1.0,5.0,96,0.11,,---,1.21,VWS V14.00,2013-12-23 16:12:00,
2013-12-23 11:17:00,58.4,57.0,30.08,WNW,283,0.0,5.0,95,0.12,,---,1.22,VWS V14.00,2013-12-23 16:17:00,
2013-12-23 11:22:00,58.4,57.3,30.08,WNW,283,1.0,5.0,96,0.12,,---,1.22,VWS V14.00,2013-12-23 16:22:00,
2013-12-23 11:27:00,58.4,57.3,30.08,WNW,286,0.0,5.0,96,0.07,,---,1.22,VWS V14.00,2013-12-23 16:27:00,
2013-12-23 11:32:00,58.4,57.3,30.08,WNW,286,1.0,5.0,96,0.08,,---,1.23,VWS V14.00,2013-12-23 16:32:00,
2013-12-23 11:37:00,58.5,57.4,30.08,WNW,286,2.0,5.0,96,0.08,,---,1.23,VWS V14.00,2013-12-23 16:37:00,
2013-12-23 11:42:00,58.6,57.5,30.08,NW,306,0.0,6.0,96,0.08,,---,1.23,VWS V14.00,2013-12-23 16:42:00,
2013-12-23 11:47:00,58.5,57.4,30.08,NW,307,1.0,8.0,96,0.08,,---,1.23,VWS V14.00,2013-12-23 16:47:00,
2013-12-23 11:52:00,58.5,57.4,30.09,WNW,302,1.0,8.0,96,0.08,,---,1.23,VWS V14.00,2013-12-23 16:52:00,
2013-12-23 11:57:00,58.4,57.0,30.09,West,275,1.0,5.0,95,0.05,,---,1.23,VWS V14.00,2013-12-23 16:57:00,
2013-12-23 12:02:00,58.3,56.9,30.09,NW,313,0.0,11.0,95,0.05,,---,1.23,VWS V14.00,2013-12-23 17:02:00,
2013-12-23 12:07:00,58.2,56.8,30.08,WNW,284,0.0,11.0,95,0.05,,---,1.23,VWS V14.00,2013-12-23 17:07:00,
2013-12-23 12:12:00,58.1,56.7,30.08,NNW,327,5.0,11.0,95,0.05,,---,1.23,VWS V14.00,2013-12-23 17:12:00,
2013-12-23 12:17:00,57.8,56.1,30.08,WNW,299,0.0,11.0,94,0.05,,---,1.23,VWS V14.00,2013-12-23 17:17:00,
2013-12-23 12:22:00,57.6,55.6,30.08,North,351,1.0,11.0,93,0.05,,---,1.23,VWS V14.00,2013-12-23 17:22:00,
2013-12-23 12:27:00,57.2,54.6,30.07,NW,316,2.0,9.0,91,0.01,,---,1.23,VWS V14.00,2013-12-23 17:27:00,
2013-12-23 12:32:00,56.8,54.2,30.07,NW,311,1.0,9.0,91,0.01,,---,1.23,VWS V14.00,2013-12-23 17:32:00,
2013-12-23 12:37:00,56.8,54.5,30.07,NW,311,0.0,9.0,92,0.01,,---,1.23,VWS V14.00,2013-12-23 17:37:00,
2013-12-23 12:42:00,56.8,54.5,30.07,NW,311,0.0,9.0,92,0.01,,---,1.23,VWS V14.00,2013-12-23 17:42:00,
2013-12-23 12:47:00,56.9,54.6,30.07,NW,313,2.0,9.0,92,0.01,,---,1.23,VWS V14.00,2013-12-23 17:47:00,
2013-12-23 12:52:00,57.0,55.0,30.07,NW,313,0.0,9.0,93,0.01,,---,1.23,VWS V14.00,2013-12-23 17:52:00,
2013-12-23 12:57:00,57.1,54.8,30.07,NW,315,4.0,7.0,92,0.00,,---,1.23,VWS V14.00,2013-12-23 17:57:00,
2013-12-23 13:02:00,57.1,54.8,30.07,NW,315,1.0,7.0,92,0.00,,---,1.23,VWS V14.00,2013-12-23 18:02:00,
2013-12-23 13:07:00,57.2,54.9,30.07,NW,309,1.0,7.0,92,0.00,,---,1.23,VWS V14.00,2013-12-23 18:07:00,
2013-12-23 13:12:00,57.3,55.0,30.07,NW,313,0.0,7.0,92,0.00,,---,1.23,VWS V14.00,2013-12-23 18:12:00,
2013-12-23 13:17:00,57.3,55.0,30.07,NW,307,0.0,7.0,92,0.00,,---,1.23,VWS V14.00,2013-12-23 18:17:00,
2013-12-23 13:22:00,57.3,55.0,30.07,NW,317,5.0,7.0,92,0.00,,---,1.23,VWS V14.00,2013-12-23 18:22:00,
2013-12-23 13:27:00,57.3,55.0,30.07,NW,319,1.0,6.0,92,0.00,,---,1.23,VWS V14.00,2013-12-23 18:27:00,
2013-12-23 13:32:00,57.4,55.1,30.06,NW,319,0.0,6.0,92,0.00,,---,1.23,VWS V14.00,2013-12-23 18:32:00,
2013-12-23 13:37:00,57.6,55.3,30.06,NW,319,0.0,6.0,92,0.00,,---,1.23,VWS V14.00,2013-12-23 18:37:00,
2013-12-23 13:42:00,57.7,55.4,30.06,NW,317,2.0,6.0,92,0.00,,---,1.23,VWS V14.00,2013-12-23 18:42:00,
2013-12-23 13:47:00,57.8,55.5,30.06,WNW,302,0.0,6.0,92,0.00,,---,1.23,VWS V14.00,2013-12-23 18:47:00,
2013-12-23 13:52:00,57.7,55.1,30.05,WNW,292,0.0,6.0,91,0.00,,---,1.23,VWS V14.00,2013-12-23 18:52:00,
2013-12-23 13:57:00,57.7,55.1,30.05,WNW,290,1.0,4.0,91,0.00,,---,1.23,VWS V14.00,2013-12-23 18:57:00,
2013-12-23 14:02:00,57.6,55.0,30.05,NW,311,0.0,7.0,91,0.00,,---,1.23,VWS V14.00,2013-12-23 19:02:00,
2013-12-23 14:07:00,57.6,55.0,30.05,NW,305,0.0,7.0,91,0.00,,---,1.23,VWS V14.00,2013-12-23 19:07:00,
2013-12-23 14:12:00,57.5,54.9,30.05,NW,313,0.0,7.0,91,0.00,,---,1.23,VWS V14.00,2013-12-23 19:12:00,
2013-12-23 14:17:00,57.4,54.8,30.05,WNW,297,0.0,7.0,91,0.00,,---,1.23,VWS V14.00,2013-12-23 19:17:00,
2013-12-23 14:22:00,57.4,54.8,30.06,WNW,302,0.0,7.0,91,0.00,,---,1.23,VWS V14.00,2013-12-23 19:22:00,
2013-12-23 14:27:00,57.3,54.7,30.06,WNW,302,0.0,4.0,91,0.00,,---,1.23,VWS V14.00,2013-12-23 19:27:00,
2013-12-23 14:32:00,57.3,54.4,30.06,WNW,302,0.0,4.0,90,0.00,,---,1.23,VWS V14.00,2013-12-23 19:32:00,
2013-12-23 14:37:00,57.2,54.3,30.06,NW,314,0.0,7.0,90,0.00,,---,1.23,VWS V14.00,2013-12-23 19:37:00,
2013-12-23 14:42:00,57.2,54.3,30.06,NW,315,0.0,7.0,90,0.00,,---,1.23,VWS V14.00,2013-12-23 19:42:00,
2013-12-23 14:47:00,57.1,54.2,30.06,WNW,302,2.0,8.0,90,0.00,,---,1.23,VWS V14.00,2013-12-23 19:47:00,
2013-12-23 14:52:00,57.1,54.2,30.06,NW,313,1.0,8.0,90,0.00,,---,1.23,VWS V14.00,2013-12-23 19:52:00,
2013-12-23 14:57:00,57.1,54.2,30.06,NW,313,0.0,2.0,90,0.00,,---,1.23,VWS V14.00,2013-12-23 19:57:00,
2013-12-23 15:02:00,57.1,54.2,30.07,NW,319,6.0,7.0,90,0.00,,---,1.23,VWS V14.00,2013-12-23 20:02:00,
2013-12-23 15:07:00,57.0,54.1,30.07,NW,313,4.0,7.0,90,0.00,,---,1.23,VWS V14.00,2013-12-23 20:07:00,
2013-12-23 15:12:00,57.0,54.1,30.07,WNW,298,0.0,7.0,90,0.00,,---,1.23,VWS V14.00,2013-12-23 20:12:00,
2013-12-23 15:17:00,57.0,54.1,30.06,NW,313,0.0,7.0,90,0.00,,---,1.23,VWS V14.00,2013-12-23 20:17:00,
2013-12-23 15:22:00,56.9,54.0,30.06,NW,318,1.0,7.0,90,0.00,,---,1.23,VWS V14.00,2013-12-23 20:22:00,
2013-12-23 15:27:00,56.9,54.0,30.06,NW,318,0.0,4.0,90,0.00,,---,1.23,VWS V14.00,2013-12-23 20:27:00,
2013-12-23 15:32:00,57.0,54.4,30.06,NW,318,0.0,4.0,91,0.00,,---,1.23,VWS V14.00,2013-12-23 20:32:00,
2013-12-23 15:37:00,57.1,54.2,30.06,NW,317,1.0,5.0,90,0.00,,---,1.23,VWS V14.00,2013-12-23 20:37:00,
2013-12-23 15:42:00,57.1,54.2,30.06,NW,315,0.0,5.0,90,0.00,,---,1.23,VWS V14.00,2013-12-23 20:42:00,
2013-12-23 15:47:00,57.1,54.5,30.06,NW,317,5.0,5.0,91,0.00,,---,1.23,VWS V14.00,2013-12-23 20:47:00,
2013-12-23 15:52:00,57.1,54.5,30.06,NW,316,2.0,5.0,91,0.00,,---,1.23,VWS V14.00,2013-12-23 20:52:00,
2013-12-23 15:57:00,57.1,54.2,30.06,NW,313,1.0,6.0,90,0.00,,---,1.23,VWS V14.00,2013-12-23 20:57:00,
2013-12-23 16:02:00,57.0,54.1,30.06,NW,317,2.0,6.0,90,0.00,,---,1.23,VWS V14.00,2013-12-23 21:02:00,
2013-12-23 16:07:00,57.0,54.1,30.07,NW,317,0.0,6.0,90,0.00,,---,1.23,VWS V14.00,2013-12-23 21:07:00,
2013-12-23 16:12:00,57.0,54.1,30.07,NW,319,0.0,6.0,90,0.00,,---,1.23,VWS V14.00,2013-12-23 21:12:00,
2013-12-23 16:17:00,57.0,54.1,30.07,NW,317,0.0,6.0,90,0.00,,---,1.23,VWS V14.00,2013-12-23 21:17:00,
2013-12-23 16:22:00,57.0,54.1,30.07,NW,316,0.0,6.0,90,0.00,,---,1.23,VWS V14.00,2013-12-23 21:22:00,
2013-12-23 16:27:00,56.9,54.0,30.07,NW,319,0.0,6.0,90,0.00,,---,1.23,VWS V14.00,2013-12-23 21:27:00,
2013-12-23 16:32:00,56.9,54.0,30.08,NW,315,2.0,7.0,90,0.00,,---,1.23,VWS V14.00,2013-12-23 21:32:00,
2013-12-23 16:37:00,56.9,54.0,30.07,NW,316,1.0,7.0,90,0.00,,---,1.23,VWS V14.00,2013-12-23 21:37:00,
2013-12-23 16:42:00,56.9,54.0,30.07,NW,319,0.0,7.0,90,0.00,,---,1.23,VWS V14.00,2013-12-23 21:42:00,
2013-12-23 16:47:00,56.9,54.0,30.07,NW,319,0.0,7.0,90,0.00,,---,1.23,VWS V14.00,2013-12-23 21:47:00,
2013-12-23 16:52:00,56.9,54.0,30.07,NW,318,0.0,7.0,90,0.00,,---,1.23,VWS V14.00,2013-12-23 21:52:00,
2013-12-23 16:57:00,56.9,54.0,30.07,NW,320,0.0,4.0,90,0.00,,---,1.23,VWS V14.00,2013-12-23 21:57:00,
2013-12-23 17:02:00,56.9,54.0,30.08,NW,320,0.0,4.0,90,0.00,,---,1.23,VWS V14.00,2013-12-23 22:02:00,
2013-12-23 17:07:00,56.8,53.9,30.07,NW,320,0.0,4.0,90,0.00,,---,1.23,VWS V14.00,2013-12-23 22:07:00,
2013-12-23 17:12:00,56.8,53.9,30.08,NW,320,0.0,4.0,90,0.00,,---,1.23,VWS V14.00,2013-12-23 22:12:00,
2013-12-23 17:17:00,56.8,53.9,30.08,NW,320,0.0,4.0,90,0.00,,---,1.23,VWS V14.00,2013-12-23 22:17:00,
2013-12-23 17:22:00,56.8,54.2,30.08,NW,320,0.0,4.0,91,0.00,,---,1.23,VWS V14.00,2013-12-23 22:22:00,
2013-12-23 17:27:00,56.7,54.1,30.08,NW,320,0.0,2.0,91,0.00,,---,1.23,VWS V14.00,2013-12-23 22:27:00,
2013-12-23 17:32:00,56.7,54.1,30.08,NW,320,1.0,4.0,91,0.00,,---,1.23,VWS V14.00,2013-12-23 22:32:00,
2013-12-23 17:37:00,56.7,53.8,30.08,NW,319,0.0,4.0,90,0.00,,---,1.23,VWS V14.00,2013-12-23 22:37:00,
2013-12-23 17:42:00,56.7,54.1,30.08,NW,317,4.0,4.0,91,0.00,,---,1.23,VWS V14.00,2013-12-23 22:42:00,
2013-12-23 17:47:00,56.7,54.1,30.08,NW,315,0.0,4.0,91,0.00,,---,1.23,VWS V14.00,2013-12-23 22:47:00,
2013-12-23 17:52:00,56.7,53.8,30.09,NW,315,0.0,4.0,90,0.00,,---,1.23,VWS V14.00,2013-12-23 22:52:00,
2013-12-23 17:57:00,56.7,53.8,30.08,NW,315,0.0,1.0,90,0.00,,---,1.23,VWS V14.00,2013-12-23 22:57:00,
2013-12-23 18:02:00,56.6,53.7,30.09,NW,316,0.0,4.0,90,0.00,,---,1.23,VWS V14.00,2013-12-23 23:02:00,
2013-12-23 18:07:00,56.6,53.7,30.09,NW,316,2.0,4.0,90,0.00,,---,1.23,VWS V14.00,2013-12-23 23:07:00,
2013-12-23 18:12:00,56.6,53.7,30.09,NW,305,0.0,5.0,90,0.00,,---,1.23,VWS V14.00,2013-12-23 23:12:00,
2013-12-23 18:17:00,56.6,53.7,30.09,WNW,287,0.0,5.0,90,0.00,,---,1.23,VWS V14.00,2013-12-23 23:17:00,
2013-12-23 18:22:00,56.5,53.6,30.09,WNW,292,0.0,5.0,90,0.00,,---,1.23,VWS V14.00,2013-12-23 23:22:00,
2013-12-23 18:27:00,56.5,53.6,30.09,West,275,0.0,5.0,90,0.00,,---,1.23,VWS V14.00,2013-12-23 23:27:00,
2013-12-23 18:32:00,56.5,53.6,30.09,WNW,282,0.0,5.0,90,0.00,,---,1.23,VWS V14.00,2013-12-23 23:32:00,
2013-12-23 18:37:00,56.4,53.5,30.09,WNW,283,0.0,5.0,90,0.00,,---,1.23,VWS V14.00,2013-12-23 23:37:00,
2013-12-23 18:42:00,56.4,53.2,30.10,WNW,289,0.0,5.0,89,0.00,,---,1.23,VWS V14.00,2013-12-23 23:42:00,
2013-12-23 18:47:00,56.4,53.2,30.10,WNW,294,0.0,7.0,89,0.00,,---,1.23,VWS V14.00,2013-12-23 23:47:00,
2013-12-23 18:52:00,56.4,53.2,30.11,WNW,294,0.0,7.0,89,0.00,,---,1.23,VWS V14.00,2013-12-23 23:52:00,
2013-12-23 18:57:00,56.4,53.2,30.11,WNW,296,0.0,4.0,89,0.00,,---,1.23,VWS V14.00,2013-12-23 23:57:00,
2013-12-23 19:02:00,56.3,53.1,30.11,WNW,296,2.0,5.0,89,0.00,,---,1.23,VWS V14.00,2013-12-24 00:02:00,
2013-12-23 19:07:00,56.3,53.1,30.11,NW,305,0.0,6.0,89,0.00,,---,1.23,VWS V14.00,2013-12-24 00:07:00,
2013-12-23 19:12:00,56.2,53.0,30.11,NW,304,0.0,6.0,89,0.00,,---,1.23,VWS V14.00,2013-12-24 00:12:00,
2013-12-23 19:17:00,56.2,53.0,30.11,NW,309,0.0,6.0,89,0.00,,---,1.23,VWS V14.00,2013-12-24 00:17:00,
2013-12-23 19:22:00,56.2,53.0,30.11,NW,310,0.0,6.0,89,0.00,,---,1.23,VWS V14.00,2013-12-24 00:22:00,
2013-12-23 19:27:00,56.1,52.9,30.11,NW,312,0.0,6.0,89,0.00,,---,1.23,VWS V14.00,2013-12-24 00:27:00,
2013-12-23 19:32:00,56.0,52.5,30.11,NW,306,0.0,6.0,88,0.00,,---,1.23,VWS V14.00,2013-12-24 00:32:00,
2013-12-23 19:37:00,55.9,52.1,30.11,WNW,303,0.0,6.0,87,0.00,,---,1.23,VWS V14.00,2013-12-24 00:37:00,
2013-12-23 19:42:00,55.9,52.1,30.11,NW,306,0.0,6.0,87,0.00,,---,1.23,VWS V14.00,2013-12-24 00:42:00,
2013-12-23 19:47:00,55.8,52.0,30.11,NW,309,1.0,6.0,87,0.00,,---,1.23,VWS V14.00,2013-12-24 00:47:00,
2013-12-23 19:52:00,55.7,52.2,30.10,NW,306,0.0,6.0,88,0.00,,---,1.23,VWS V14.00,2013-12-24 00:52:00,
2013-12-23 19:57:00,55.5,51.7,30.10,NW,318,5.0,6.0,87,0.00,,---,1.23,VWS V14.00,2013-12-24 00:57:00,
2013-12-23 20:02:00,55.4,51.6,30.11,NW,310,0.0,6.0,87,0.00,,---,1.23,VWS V14.00,2013-12-24 01:02:00,
2013-12-23 20:07:00,55.3,51.2,30.11,NW,316,0.0,7.0,86,0.01,,---,1.24,VWS V14.00,2013-12-24 01:07:00,
2013-12-23 20:12:00,55.2,51.1,30.10,NW,315,1.0,7.0,86,0.01,,---,1.24,VWS V14.00,2013-12-24 01:12:00,
2013-12-23 20:17:00,55.0,50.6,30.11,West,267,1.0,7.0,85,0.01,,---,1.24,VWS V14.00,2013-12-24 01:17:00,
2013-12-23 20:22:00,54.8,50.4,30.11,WNW,301,0.0,7.0,85,0.01,,---,1.24,VWS V14.00,2013-12-24 01:22:00,
2013-12-23 20:27:00,54.8,50.4,30.11,NW,306,0.0,6.0,85,0.01,,---,1.24,VWS V14.00,2013-12-24 01:27:00,
2013-12-23 20:32:00,54.6,50.2,30.11,NW,308,0.0,6.0,85,0.01,,---,1.24,VWS V14.00,2013-12-24 01:32:00,
2013-12-23 20:37:00,54.5,50.1,30.11,NW,319,2.0,8.0,85,0.01,,---,1.24,VWS V14.00,2013-12-24 01:37:00,
2013-12-23 20:42:00,54.4,50.0,30.12,NW,315,0.0,8.0,85,0.01,,---,1.24,VWS V14.00,2013-12-24 01:42:00,
2013-12-23 20:47:00,54.2,49.8,30.12,NW,305,4.0,11.0,85,0.01,,---,1.24,VWS V14.00,2013-12-24 01:47:00,
2013-12-23 20:52:00,54.1,49.7,30.12,NW,310,2.0,11.0,85,0.01,,---,1.24,VWS V14.00,2013-12-24 01:52:00,
2013-12-23 20:57:00,54.0,49.6,30.12,NW,310,1.0,5.0,85,0.01,,---,1.24,VWS V14.00,2013-12-24 01:57:00,
2013-12-23 21:02:00,53.9,49.5,30.12,NW,304,0.0,5.0,85,0.01,,---,1.24,VWS V14.00,2013-12-24 02:02:00,
2013-12-23 21:07:00,53.7,49.0,30.12,NW,306,0.0,6.0,84,0.01,,---,1.24,VWS V14.00,2013-12-24 02:07:00,
2013-12-23 21:12:00,53.5,49.1,30.12,NW,306,0.0,6.0,85,0.01,,---,1.24,VWS V14.00,2013-12-24 02:12:00,
2013-12-23 21:17:00,53.4,48.7,30.12,NW,304,0.0,6.0,84,0.01,,---,1.24,VWS V14.00,2013-12-24 02:17:00,
2013-12-23 21:22:00,53.2,48.8,30.13,NW,319,2.0,8.0,85,0.01,,---,1.24,VWS V14.00,2013-12-24 02:22:00,
2013-12-23 21:27:00,53.0,48.6,30.13,NW,309,0.0,6.0,85,0.00,,---,1.24,VWS V14.00,2013-12-24 02:27:00,
2013-12-23 21:32:00,52.9,48.5,30.13,NW,319,7.0,7.0,85,0.00,,---,1.24,VWS V14.00,2013-12-24 02:32:00,
2013-12-23 21:37:00,52.7,48.3,30.13,West,262,2.0,8.0,85,0.00,,---,1.24,VWS V14.00,2013-12-24 02:37:00,
2013-12-23 21:42:00,52.5,48.1,30.13,NW,319,8.0,8.0,85,0.00,,---,1.24,VWS V14.00,2013-12-24 02:42:00,
2013-12-23 21:47:00,52.3,47.6,30.13,NW,318,2.0,12.0,84,0.00,,---,1.24,VWS V14.00,2013-12-24 02:47:00,
2013-12-23 21:52:00,52.1,47.7,30.13,NW,318,0.0,12.0,85,0.00,,---,1.24,VWS V14.00,2013-12-24 02:52:00,
2013-12-23 21:57:00,51.8,47.1,30.13,NW,316,5.0,10.0,84,0.00,,---,1.24,VWS V14.00,2013-12-24 02:57:00,
2013-12-23 22:02:00,51.4,46.7,30.13,NW,310,1.0,10.0,84,0.00,,---,1.24,VWS V14.00,2013-12-24 03:02:00,
2013-12-23 22:07:00,51.1,46.4,30.13,NW,325,0.0,10.0,84,0.00,,---,1.24,VWS V14.00,2013-12-24 03:07:00,
2013-12-23 22:12:00,50.9,46.2,30.14,NW,313,5.0,10.0,84,0.00,,---,1.24,VWS V14.00,2013-12-24 03:12:00,
2013-12-23 22:17:00,50.6,46.3,30.14,WNW,298,4.0,10.0,85,0.00,,---,1.24,VWS V14.00,2013-12-24 03:17:00,
2013-12-23 22:22:00,50.3,46.0,30.13,NW,321,4.0,10.0,85,0.00,,---,1.24,VWS V14.00,2013-12-24 03:22:00,
2013-12-23 22:27:00,50.1,45.8,30.14,West,273,0.0,7.0,85,0.00,,---,1.24,VWS V14.00,2013-12-24 03:27:00,
2013-12-23 22:32:00,49.9,45.6,30.14,NW,315,1.0,8.0,85,0.00,,---,1.24,VWS V14.00,2013-12-24 03:32:00,
2013-12-23 22:37:00,49.7,45.4,30.14,NNW,346,0.0,8.0,85,0.00,,---,1.24,VWS V14.00,2013-12-24 03:37:00,
2013-12-23 22:42:00,49.5,45.2,30.15,NW,321,0.0,8.0,85,0.00,,---,1.24,VWS V14.00,2013-12-24 03:42:00,
2013-12-23 22:47:00,49.4,45.4,30.14,NW,315,1.0,8.0,86,0.00,,---,1.24,VWS V14.00,2013-12-24 03:47:00,
2013-12-23 22:52:00,49.2,45.5,30.15,NW,317,0.0,8.0,87,0.00,,---,1.24,VWS V14.00,2013-12-24 03:52:00,
2013-12-23 22:57:00,49.0,44.7,30.15,WSW,250,1.0,6.0,85,0.00,,---,1.24,VWS V14.00,2013-12-24 03:57:00,
2013-12-23 23:02:00,48.6,44.0,30.15,NNW,336,2.0,11.0,84,0.00,,---,1.24,VWS V14.00,2013-12-24 04:02:00,
2013-12-23 23:07:00,48.4,44.1,30.15,NNW,332,0.0,11.0,85,0.00,,---,1.24,VWS V14.00,2013-12-24 04:07:00,
2013-12-23 23:12:00,48.1,43.8,30.15,NW,315,0.0,11.0,85,0.00,,---,1.24,VWS V14.00,2013-12-24 04:12:00,
2013-12-23 23:17:00,47.8,43.2,30.15,NW,323,2.0,11.0,84,0.00,,---,1.24,VWS V14.00,2013-12-24 04:17:00,
2013-12-23 23:22:00,47.5,42.6,30.16,West,278,4.0,11.0,83,0.00,,---,1.24,VWS V14.00,2013-12-24 04:22:00,
2013-12-23 23:27:00,47.0,42.1,30.15,North,355,1.0,9.0,83,0.00,,---,1.24,VWS V14.00,2013-12-24 04:27:00,
2013-12-23 23:32:00,46.8,42.2,30.16,NW,323,6.0,9.0,84,0.00,,---,1.24,VWS V14.00,2013-12-24 04:32:00,
2013-12-23 23:37:00,46.5,41.9,30.16,NNE,17,2.0,10.0,84,0.00,,---,1.24,VWS V14.00,2013-12-24 04:37:00,
2013-12-23 23:42:00,46.3,41.7,30.16,NNW,332,1.0,10.0,84,0.00,,---,1.24,VWS V14.00,2013-12-24 04:42:00,
2013-12-23 23:47:00,46.2,42.0,30.15,North,351,0.0,10.0,85,0.00,,---,1.24,VWS V14.00,2013-12-24 04:47:00,
2013-12-23 23:52:00,46.1,41.8,30.15,North,350,0.0,10.0,85,0.00,,---,1.24,VWS V14.00,2013-12-24 04:52:00,
2013-12-23 23:57:00,46.0,42.0,30.16,NW,325,4.0,5.0,86,0.00,,---,0.00,VWS V14.00,2013-12-24 04:57:00,